When you browse on this site, cookies collect data to enhance your experience and personalize the content and advertising you see.
Visit our Privacy Policy to learn more. By continuing to use the site, you agree to this use of cookies and data.
  • In Portugal
  • List of Countries
  • For 7 days
  • Water Temperature
  • Satellite Maps
  • Weather Map
  • Weather Widgets
  • user-avatar
    Login

    Hourly Weather Gadilovichi

    Today, 24 June, Monday

    Time Temperature Precipitation Wind Pressure Humidity
    00:00 +15°C° 0 mm 4 mps 753 mmHg 94%
    01:00 +15°C° 0 mm 4 mps 753 mmHg 93%
    02:00 +15°C° 0 mm 4 mps 754 mmHg 92%
    03:00 +15°C° 0 mm 4 mps 754 mmHg 92%
    04:00 +15°C° 0 mm 4 mps 754 mmHg 92%
    05:00 +15°C° 0 mm 4 mps 754 mmHg 92%
    06:00 +17°C° 0 mm 4 mps 754 mmHg 87%
    07:00 +18°C° 0 mm 4 mps 755 mmHg 81%
    08:00 +20°C° 0 mm 4 mps 755 mmHg 76%
    09:00 +21°C° 0 mm 5 mps 755 mmHg 72%
    10:00 +22°C° 0 mm 5 mps 755 mmHg 68%
    11:00 +23°C° 0 mm 5 mps 755 mmHg 64%
    12:00 +23°C° 0 mm 5 mps 755 mmHg 63%
    13:00 +23°C° 0 mm 5 mps 756 mmHg 62%
    14:00 +25°C° 0 mm 5 mps 756 mmHg 61%
    15:00 +23°C° 0 mm 5 mps 756 mmHg 63%
    16:00 +23°C° 0 mm 5 mps 756 mmHg 65%
    17:00 +23°C° 0 mm 5 mps 756 mmHg 67%
    18:00 +21°C° 0 mm 4 mps 756 mmHg 72%
    19:00 +20°C° 0 mm 3 mps 756 mmHg 77%
    20:00 +18°C° 0 mm 3 mps 757 mmHg 82%
    21:00 +18°C° 0 mm 3 mps 757 mmHg 84%
    22:00 +17°C° 0 mm 3 mps 757 mmHg 85%
    23:00 +16°C° 0 mm 3 mps 757 mmHg 86%

    Tomorrow, 25 June, Tuesday

    Time Temperature Precipitation Wind Pressure Humidity
    00:00 +14°C° 0 mm 3 mps 757 mmHg 87%
    01:00 +14°C° 0 mm 3 mps 758 mmHg 88%
    02:00 +13°C° 0 mm 3 mps 758 mmHg 89%
    03:00 +13°C° 0 mm 3 mps 758 mmHg 88%
    04:00 +13°C° 0 mm 3 mps 758 mmHg 86%
    05:00 +13°C° 0 mm 3 mps 758 mmHg 85%
    06:00 +16°C° 0 mm 3 mps 758 mmHg 81%
    07:00 +18°C° 0 mm 3 mps 759 mmHg 77%
    08:00 +20°C° 0 mm 3 mps 759 mmHg 73%
    09:00 +21°C° 0 mm 3 mps 759 mmHg 69%
    10:00 +22°C° 0 mm 3 mps 759 mmHg 64%
    11:00 +24°C° 0 mm 3 mps 759 mmHg 60%
    12:00 +25°C° 0 mm 3 mps 759 mmHg 59%
    13:00 +25°C° 0 mm 3 mps 759 mmHg 58%
    14:00 +25°C° 0 mm 3 mps 759 mmHg 57%
    15:00 +25°C° 0 mm 3 mps 759 mmHg 59%
    16:00 +24°C° 0 mm 3 mps 759 mmHg 61%
    17:00 +24°C° 0 mm 3 mps 758 mmHg 63%
    18:00 +21°C° 0 mm 3 mps 759 mmHg 68%
    19:00 +20°C° 0 mm 2 mps 759 mmHg 73%
    20:00 +18°C° 0 mm 2 mps 759 mmHg 78%
    21:00 +17°C° 0 mm 2 mps 759 mmHg 79%
    22:00 +18°C° 0 mm 1 mps 759 mmHg 81%
    23:00 +16°C° 0 mm 1 mps 759 mmHg 82%

    Day after tomorrow, 26 June, Wednesday

    Time Temperature Precipitation Wind Pressure Humidity
    00:00 +15°C° 0 mm 1 mps 759 mmHg 83%
    01:00 +15°C° 0 mm 1 mps 759 mmHg 84%
    02:00 +13°C° 0 mm 0 mps 759 mmHg 85%
    03:00 +14°C° 0 mm 0 mps 759 mmHg 85%
    04:00 +14°C° 0 mm 0 mps 758 mmHg 84%
    05:00 +14°C° 0 mm 0 mps 758 mmHg 83%
    06:00 +16°C° 0 mm 0 mps 758 mmHg 78%
    07:00 +18°C° 0 mm 0 mps 758 mmHg 73%
    08:00 +21°C° 0 mm 1 mps 758 mmHg 68%
    09:00 +22°C° 0 mm 1 mps 757 mmHg 64%
    10:00 +23°C° 0 mm 1 mps 757 mmHg 60%
    11:00 +24°C° 0 mm 2 mps 756 mmHg 56%
    12:00 +25°C° 0 mm 2 mps 756 mmHg 55%
    13:00 +25°C° 0 mm 2 mps 756 mmHg 54%
    14:00 +26°C° 0 mm 2 mps 755 mmHg 53%
    15:00 +26°C° 0 mm 2 mps 755 mmHg 55%
    16:00 +26°C° 0 mm 2 mps 754 mmHg 58%
    17:00 +26°C° 0 mm 2 mps 753 mmHg 60%
    18:00 +25°C° 0 mm 2 mps 753 mmHg 66%
    19:00 +23°C° 0 mm 2 mps 752 mmHg 71%
    20:00 +21°C° 0 mm 2 mps 752 mmHg 77%
    21:00 +20°C° 0 mm 2 mps 751 mmHg 79%
    22:00 +19°C° 0 mm 2 mps 751 mmHg 82%
    23:00 +18°C° 0 mm 2 mps 751 mmHg 84%

    27 June, Thursday

    Time Temperature Precipitation Wind Pressure Humidity
    00:00 +18°C° 0 mm 2 mps 750 mmHg 85%
    01:00 +18°C° 0 mm 3 mps 749 mmHg 86%
    02:00 +18°C° 0 mm 3 mps 748 mmHg 87%
    03:00 +18°C° 0 mm 4 mps 747 mmHg 87%
    04:00 +18°C° 0 mm 4 mps 747 mmHg 87%
    05:00 +19°C° 0 mm 5 mps 746 mmHg 87%
    06:00 +19°C° 1.1 mm 5 mps 745 mmHg 88%
    07:00 +20°C° 1.1 mm 5 mps 744 mmHg 88%
    08:00 +21°C° 1.1 mm 6 mps 743 mmHg 88%
    09:00 +22°C° 0.6 mm 6 mps 743 mmHg 88%
    10:00 +22°C° 0.6 mm 6 mps 742 mmHg 88%
    11:00 +22°C° 0.6 mm 5 mps 741 mmHg 88%
    12:00 +23°C° 0.5 mm 6 mps 741 mmHg 84%
    13:00 +24°C° 0.5 mm 6 mps 740 mmHg 80%
    14:00 +26°C° 0.5 mm 7 mps 740 mmHg 76%
    15:00 +23°C° 0.7 mm 7 mps 740 mmHg 78%
    16:00 +22°C° 0.7 mm 8 mps 740 mmHg 81%
    17:00 +21°C° 0.7 mm 9 mps 740 mmHg 83%
    18:00 +18°C° 0.1 mm 8 mps 740 mmHg 83%
    19:00 +16°C° 0.1 mm 7 mps 740 mmHg 83%
    20:00 +15°C° 0.1 mm 5 mps 741 mmHg 82%
    21:00 +14°C° 0 mm 6 mps 741 mmHg 81%
    22:00 +14°C° 0 mm 6 mps 741 mmHg 80%
    23:00 +14°C° 0 mm 6 mps 741 mmHg 79%

    28 June, Friday

    Time Temperature Precipitation Wind Pressure Humidity
    00:00 +14°C° 0 mm 6 mps 741 mmHg 77%
    01:00 +14°C° 0 mm 6 mps 741 mmHg 76%
    02:00 +14°C° 0 mm 6 mps 741 mmHg 74%
    03:00 +12°C° 0 mm 7 mps 741 mmHg 76%
    04:00 +11°C° 0 mm 7 mps 741 mmHg 77%
    05:00 +10°C° 0 mm 7 mps 740 mmHg 79%
    06:00 +11°C° 0 mm 8 mps 740 mmHg 77%
    07:00 +12°C° 0 mm 9 mps 740 mmHg 75%
    08:00 +13°C° 0 mm 9 mps 740 mmHg 73%
    09:00 +13°C° 0 mm 9 mps 740 mmHg 72%
    10:00 +15°C° 0 mm 9 mps 740 mmHg 71%
    11:00 +16°C° 0 mm 9 mps 740 mmHg 70%
    12:00 +16°C° 0.2 mm 8 mps 740 mmHg 71%
    13:00 +16°C° 0.2 mm 8 mps 740 mmHg 71%
    14:00 +16°C° 0.2 mm 8 mps 740 mmHg 72%
    15:00 +16°C° 0.3 mm 8 mps 740 mmHg 73%
    16:00 +16°C° 0.3 mm 8 mps 740 mmHg 74%
    17:00 +16°C° 0.3 mm 7 mps 740 mmHg 75%
    18:00 +15°C° 0.1 mm 6 mps 740 mmHg 75%
    19:00 +14°C° 0.1 mm 5 mps 740 mmHg 76%
    20:00 +14°C° 0.1 mm 4 mps 740 mmHg 76%
    21:00 +13°C° 0 mm 5 mps 740 mmHg 75%
    22:00 +12°C° 0 mm 5 mps 740 mmHg 73%
    23:00 +12°C° 0 mm 5 mps 740 mmHg 72%

    29 June, Saturday

    Time Temperature Precipitation Wind Pressure Humidity
    00:00 +12°C° 0 mm 5 mps 740 mmHg 72%
    01:00 +10°C° 0 mm 6 mps 740 mmHg 73%
    02:00 +10°C° 0 mm 6 mps 740 mmHg 73%
    03:00 +10°C° 0 mm 6 mps 739 mmHg 74%
    04:00 +9°C° 0 mm 7 mps 739 mmHg 75%
    05:00 +9°C° 0 mm 7 mps 739 mmHg 76%
    06:00 +9°C° 0 mm 7 mps 739 mmHg 74%
    07:00 +10°C° 0 mm 7 mps 739 mmHg 73%
    08:00 +10°C° 0 mm 8 mps 739 mmHg 71%
    09:00 +10°C° 0 mm 8 mps 740 mmHg 70%
    10:00 +10°C° 0 mm 8 mps 740 mmHg 69%
    11:00 +10°C° 0 mm 8 mps 740 mmHg 67%
    12:00 +10°C° 0.2 mm 8 mps 740 mmHg 71%
    13:00 +10°C° 0.2 mm 7 mps 740 mmHg 74%
    14:00 +10°C° 0.2 mm 6 mps 740 mmHg 77%
    15:00 +10°C° 0.1 mm 6 mps 741 mmHg 78%
    16:00 +10°C° 0.1 mm 6 mps 741 mmHg 79%
    17:00 +10°C° 0.1 mm 6 mps 741 mmHg 80%
    18:00 +10°C° 0.2 mm 7 mps 741 mmHg 80%
    19:00 +10°C° 0.2 mm 7 mps 741 mmHg 79%
    20:00 +9°C° 0.2 mm 7 mps 741 mmHg 79%
    21:00 +9°C° 0 mm 7 mps 741 mmHg 76%
    22:00 +10°C° 0 mm 7 mps 741 mmHg 74%
    23:00 +10°C° 0 mm 7 mps 741 mmHg 71%
    Show more